Location: Azul
(36.7830°S, 59.8500°W)
Time: 12:29:12
(UTC-03:00)

ISS - Pass Details

Date: 15 February 2018
Orbit: 403 x 406 km, 51.6° (Epoch: 26 February)

Event Time Altitude Azimuth Distance (km) Brightness Sun altitude
Rises 05:01:13 0° 218° (SW) 2,366 0.0 -17.2°
Reaches altitude 10° 05:03:57 10° 194° (SSW) 1,498 -0.8 -16.7°
Maximum altitude 05:06:04 16° 155° (SSE) 1,202 -0.7 -16.3°
Drops below altitude 10° 05:08:11 10° 116° (ESE) 1,491 0.4 -16.0°
Sets 05:10:54 0° 92° (E) 2,347 1.2 -15.5°
